Showing default

OPS 6638 (VELA 7), 2765

Orbit data source: Space-Track

OPS 6638 (VELA 7), 2765 is a payload satellite owned by USAF SSD (US) in HEO that was launched on Fri, 28 Apr 1967 UTC via a TITAN IIIC launch vehicle from the Air Force Eastern Test Range (AFETR). Payload-class satellites include a variety of spacecraft equipped with specific instruments for various scientific and technological missions. These include communications satellites like Starlink; space stations such as the ISS; scientific satellites like the Hubble; Earth observation satellites from companies like Planet Labs, Umbra, and HawkEye 360; GPS; miniature CubeSats for education and research; and military/defense satellites.

Loading next visibility...
Identifier
2765, 1967-040A
Orbit
HEO
Country
Flag of USUS
Related business
Manufacturer
TRW
Mission
Spacecraft
Bus & Motor
VELA, BE-3
Mass
331 kg wet, 221 kg dry
Launch date (UTC)
1967-04-28 (59 years ago)
Launch vehicle
TITAN IIIC
Launch site
Air Force Eastern Test Range (AFETR)
Object type
Payload
Rocket body
Debris
Shape & HBR
Unknown
Radar Cross Section
RCS unknown

Expand to show TLE details & history
Last TLE update: 4 months ago

TLE from 4 months ago
0 OPS 6638 (VELA 7)
1 02765U 67040A   25197.87962517 -.00001350  00000-0  00000-0 0  9996
2 02765  38.9537  15.4074 4946527 279.1044 359.3388  0.21513482 12763
Epoch: 2025-07-16T21:06Z
TLE epoch observation values (Epoch: 2025-07-16T21:06:39.614Z)
Latitude
-38.64139°
Longitude
41.70984°
Altitude
52,137.092 km
Speed
3.2 km/s
True Right ascension
19h 33m 18s
True Declination
-38° 37' 15"
Sunlit
Object was in daylight at epoch
Visualization orbit readout
Latitude
Unknown
Longitude
Unknown
Altitude
Unknown
Speed
Unknown
Apparent Right ascension
Unknown
Apparent Declination
Unknown
Sunlit
N/A
Visualization observer readout
Local Sidereal Time
01:14:23
Azimuth
Unknown
Elevation
Unknown
Doppler factor
Unknown
Orbital elements
Apogee altitude
169,469.33 km
Perigee altitude
53,076.506 km
Semi-major axis
117,651.055 km
Eccentricity
0.49465
Inclination
38.9537°
RAAN
15.4074°
Arg. of periapsis
279.1044°
True anomaly
357.7502°
Mean anomaly
359.3388°
Eccentric anomaly
358.6917°
Mean motion
0.05378 °/min
Orbital period
6,693.5 mins
BSTAR
0
Loading maneuver chart data...
Computing Atmospheric mass density...
Loading historical data...
Loading historical data...
Loading historical data...
Loading historical data...
Loading historical data...
Loading historical data...
Loading historical data...

Documentation

Showing up to 5 results
|